Regional Weather Roundup
Issued by NWS Lake Charles, LA

Home | Current Version | Previous Version | Text Only | Print | Product List | Glossary On
Versions: 1 2 3 4 5 6 7 8 9 10 11 12 13 14 15 16 17 18 19 20 21 22 23 24 25 26 27 28 29 30 31 32 33 34 35 36 37 38 39 40 41 42 43 44 45 46 47 48 49 50
000
ASUS44 KLCH 132210
RWRLCH
REGIONAL WEATHER ROUNDUP
NATIONAL WEATHER SERVICE LAKE CHARLES LA
400 PM CST SAT FEB 13 2016

Note: "fair" indicates few or no clouds below 12,000 feet with no
significant weather and/or obstructions to visibility.


ACROSS SOUTHEAST TEXAS

CITY           SKY/WX    TMP DP  RH WIND       PRES   REMARKS
BEAUMONT       CLOUDY    61  47  59 SE10      30.32S
BEAUMONT CITY  CLOUDY    62  42  47 S7        30.32S
ORANGE         CLOUDY    63  40  42 SE6       30.33S
JASPER         CLOUDY    64  39  39 S3        30.32S
$$

ACROSS CENTRAL LOUISIANA

CITY           SKY/WX    TMP DP  RH WIND       PRES   REMARKS
LEESVILLE      MOSUNNY   62  38  41 VRB5      30.30F
FULLERTON      CLOUDY    60  36  40 VRB3      30.29F
ALEXANDRIA INT SUNNY     58  34  40 E12       30.32F
ESLER FIELD    SUNNY     60  30  32 NE6       30.35F
DERIDDER         N/A     64  36  34 NE5       30.32F HAZE
OAKDALE          N/A     63  37  38 NE3       30.32F
OPELOUSAS      FAIR      63  36  36 CALM      30.32F
$$

ACROSS SOUTHWEST AND SOUTH CENTRAL LOUISIANA

CITY           SKY/WX    TMP DP  RH WIND       PRES   REMARKS
SULPHUR        CLOUDY    64  41  42 MISG      30.32S
LAKE CHARLES   CLOUDY    64  40  41 SE9       30.31F
CHENNAULT INT  SUNNY     63  39  42 E9        30.32F
CAMERON PHI    NOT AVBL
DEQUINCY       CLOUDY    63  40  42 E6        30.31S
JENNINGS       NOT AVBL
LAFAYETTE      SUNNY     65  37  35 NE6       30.32F
NEW IBERIA     SUNNY     65  36  34 CALM      30.33F
ABBEVILLE      FAIR      65  38  37 E5        30.32F
PATTERSON      SUNNY     63  36  36 NE6       30.31F
SALT POINT       N/A     63  44  50 S7        30.31F
$$

SELECTED SITES ACROSS THE REGION

CITY           SKY/WX    TMP DP  RH WIND       PRES   REMARKS
HOUSTON BUSH   MOSUNNY   65  51  60 SE15      30.27F
HOUSTON HOBBY  MOSUNNY   65  53  65 E14       30.27F
GALVESTON      PTSUNNY   62  55  77 E13       30.28F
COLLEGE STAT   PTSUNNY   72  55  55 S7        30.21F
CONROE         MOSUNNY   68  49  50 S12       30.26F
HUNTSVILLE     CLOUDY    69  50  50 SE6       30.24F
LUFKIN         PTSUNNY   65  39  38 E9        30.28F
SHREVEPORT     SUNNY     59  32  36 E9        30.30F
MONROE         SUNNY     50  21  32 NE10      30.40F
NATCHEZ MS     SUNNY     55  30  38 N10       30.35F
BATON ROUGE    SUNNY     64  34  32 CALM      30.32F
N.O. INTL ARPT MOSUNNY   62  30  29 NE6       30.34F
SLIDELL        SUNNY     64  33  31 NE6       30.32F
$$

MARINE REPORTS

STATION/POSITION TIME  SKY/WX   TEMP    WIND        PRES    VSBY
                                AIR SEA DIR/SP/G
                 (UTC)          (F)     (DEG/KT/KT) (MB)    (MI)
BUOY 30 S HIGH I 2150            60 59  100/ 12/ 14 1025.8F
WVE H/P(F/S)=  4/ 5

SEA RIM ST PARK  2200            58     120/ 11/ 14 1027.2S
PORT ARTHUR      2100               58  150/  7/ 12 1026.9F
SABINE PASS N    2100            58 59  130/ 15/ 18 1027.9F
TEXAS POINT      NOT AVBL
CALCASIEU PASS   2100            57 60  150/ 15/ 17 1025.9F
LK CHARLES BEACH 2100            65 58              1027.2F
MARSH ISLAND     NOT AVBL
FRESH WATER LOCK 2100            59 64  100/ 10/ 13 1027.2F
AMERADA PASS     2100            63 55   60/  6/ 10 1026.9F
$$



USA.gov is the U.S. government's official web portal to all federal, state and local government web resources and services.